This demonstration page uses our WeatherBlox Daily Observations layout. Learn more.

Left ArrowRight Arrow

31.84235, -102.49876

Hourly Observations for March 20, 2022

Temp ( °F °C ) Dew Point ( °F °C ) Humidity (%) Winds ( mph kmh ) Pressure ( in mb ) Visibility ( mi km ) Precip ( " mm )
12:53 am 00:53 Clear 60 15.6 25 -3.9 26 26 S 18 30 30.02 1017 10 16 0.00 0.00
1:53 am 01:53 Clear 58 14.4 26 -3.3 29 29 SSE 10 17 30.00 1016 10 16 0.00 0.00
2:53 am 02:53 Clear 55 12.8 26 -3.3 33 33 SSE 10 17 29.99 1016 10 16 0.00 0.00
3:53 am 03:53 Clear 56 13.3 28 -2.2 34 34 SSE 13 20 29.97 1015 10 16 0.00 0.00
4:53 am 04:53 Clear 52 11.1 27 -2.8 38 38 SSE 9 15 29.96 1015 10 16 0.00 0.00
5:53 am 05:53 Clear 52 11.1 28 -2.2 40 40 SSE 10 17 29.96 1015 10 16 0.00 0.00
6:53 am 06:53 Clear 52 11.1 28 -2.2 40 40 S 13 20 29.96 1015 10 16 0.00 0.00
7:53 am 07:53 Sunny 52 11.1 29 -1.7 41 41 SSE 13 20 29.97 1015 10 16 0.00 0.00
8:53 am 08:53 Sunny 54 12.2 31 -0.6 42 42 S 20 31 29.98 1015 10 16 0.00 0.00
9:53 am 09:53 Sunny 60 15.6 34 1.1 38 38 S 22 35 29.98 1015 9 14 0.00 0.00
10:53 am 10:53 Hazy 65 18.3 35 1.7 33 33 S 30 48 29.96 1015 6 10 0.00 0.00
11:53 am 11:53 Hazy 70 21.1 35 1.7 28 28 S 25 41 29.96 1014 6 10 0.00 0.00
12:53 pm 12:53 Sunny 73 22.8 34 1.1 24 24 S 29 46 29.92 1013 7 11 0.00 0.00
1:53 pm 13:53 Sunny 75 23.9 31 -0.6 20 20 S 25 41 29.89 1012 7 11 0.00 0.00
2:53 pm 14:53 Sunny 76 24.4 29 -1.7 18 18 SSE 31 50 29.85 1011 9 14 0.00 0.00
3:53 pm 15:53 Sunny 76 24.4 27 -2.8 16 16 SSE 31 50 29.80 1009 10 16 0.00 0.00
4:53 pm 16:53 Sunny 77 25 27 -2.8 16 16 SSE 24 39 29.75 1008 10 16 0.00 0.00
5:53 pm 17:53 Sunny 76 24.4 27 -2.8 16 16 SSE 26 43 29.74 1007 10 16 0.00 0.00
6:53 pm 18:53 Sunny 74 23.3 27 -2.8 17 17 SSE 28 44 29.72 1007 10 16 0.00 0.00
7:53 pm 19:53 Sunny 71 21.7 28 -2.2 20 20 S 22 35 29.72 1006 10 16 0.00 0.00
8:53 pm 20:53 Clear 68 20 28 -2.2 22 22 SSE 23 37 29.72 1007 10 16 0.00 0.00
9:53 pm 21:53 Clear 66 18.9 30 -1.1 26 26 SSE 25 41 29.70 1006 10 16 0.00 0.00
10:53 pm 22:53 Clear 65 18.3 33 0.6 31 31 SSE 25 41 29.68 1005 10 16 0.00 0.00
11:53 pm 23:53 Clear 64 17.8 35 1.7 34 34 SSE 24 39 29.65 1004 10 16 0.00 0.00

Powered by AerisWeather